Location: Unspecified
(49.9217°N, 0.0000°E)
Time: 14:01:10
(UTC+00:00)

ISS - Visible Passes

Search period start: 23 May 2019 00:00
Search period end: 02 June 2019 00:00
Orbit: 407 x 410 km, 51.6° (Epoch: 23 May)

Date Brightness Start Highest point End Pass type
(mag) Time Alt. Az. Time Alt. Az. Time Alt. Az.
23 May -3.4 21:26:43 10° W 21:30:01 66° N 21:33:19 10° ENE visible
23 May -3.8 23:03:26 10° WNW 23:06:45 79° NNE 23:07:50 40° E visible
24 May -1.3 00:40:09 10° W 00:40:31 12° W 00:40:31 12° W visible
24 May -3.6 20:35:43 10° W 20:39:02 76° NNW 20:42:21 10° ENE visible
24 May -3.5 22:12:28 10° WNW 22:15:46 67° N 22:18:23 15° E visible
24 May -2.6 23:49:07 10° WNW 23:51:06 30° W 23:51:06 30° W visible
25 May -3.3 21:21:29 10° W 21:24:46 62° N 21:28:04 10° E visible
25 May -3.9 22:58:07 10° WNW 23:01:25 70° SSW 23:01:42 64° SSE visible
26 May -3.3 20:30:28 10° W 20:33:45 63° N 20:37:02 10° E visible
26 May -3.9 22:07:09 10° WNW 22:10:28 88° NNE 22:12:20 24° ESE visible
26 May -1.7 23:43:58 10° W 23:45:03 17° W 23:45:03 17° W visible
27 May -3.6 21:16:10 10° WNW 21:19:28 72° N 21:22:47 10° E visible
27 May -3.1 22:52:49 10° W 22:55:42 38° SW 22:55:42 38° SW visible
28 May -3.7 22:01:47 10° WNW 22:05:02 58° SSW 22:06:23 31° SE visible
29 May -3.9 21:10:46 10° WNW 21:14:04 81° SSW 21:17:04 12° ESE visible
29 May -2.1 22:47:44 10° W 22:49:47 20° SW 22:49:47 20° SW visible
30 May -2.8 21:56:28 10° W 21:59:27 32° SSW 22:00:30 25° S visible
31 May -3.4 21:05:20 10° WNW 21:08:32 48° SSW 21:11:14 13° SE visible
31 May -1.2 22:43:47 10° WSW 22:43:57 10° SW 22:43:57 10° SW visible
01 Jun -1.8 21:51:28 10° W 21:53:41 17° SW 21:54:43 15° SSW visible
